Port Isabel, TX

9:47 PM CDT on June 23, 2017 (GMT -0500)
Port Isabel-Cameron County

Weather History for KPIL - April, 2014

Change the Weather History Date:

Wednesday, April 16, 2014

  Actual Average (KBRO) Record (KBRO)
Temperature  
Mean Temperature 64 °F -  
Max Temperature 75 °F 81 °F 100 °F (1920)
Min Temperature 55 °F 64 °F 46 °F (1928)
Degree Days  
Heating Degree Days 1    
Growing Degree Days 14 (Base 50)    
Moisture  
Dew Point 52 °F    
Average Humidity 63    
Maximum Humidity 81    
Minimum Humidity 46    
Precipitation  
Precipitation 0.00 in - - ()
Sea Level Pressure  
Sea Level Pressure 30.04 in    
Wind  
Wind Speed 10 mph (SE)    
Max Wind Speed 18 mph    
Max Gust Speed 24 mph    
Visibility 9 miles    
Events      
Averages and records for this station are not official NWS values.
T = Trace of Precipitation, MM = Missing Value Source: NWS Daily Summary

Daily Weather History Graph

Daily Weather History Graph

Search for Another Location

Airport or City:

Trip Planner

Search our weather history database for the weather conditions in past years. The results will help you decide how hot, cold, wet, or windy it might be!

Date:

Astronomy

Apr. 16, 2014 Rise Set
Actual Time 7:05 AM CDT 7:53 PM CDT
Civil Twilight 6:41 AM CDT 8:17 PM CDT
Nautical Twilight 6:13 AM CDT 8:45 PM CDT
Astronomical Twilight 5:45 AM CDT 9:13 PM CDT
Moon 9:30 PM CDT (4/16) 7:59 AM CDT (4/16)
Length of Visible Light 13h 35m
Length of Day
12h 48m
Full, 98% of the Moon is Illuminated
Apr 16
Full
Apr 22
Last Quarter
Apr 29
New
May 6
First Quarter
May 14
Full

Hourly Weather History & Observations

Time (CDT) Temp. Dew Point Humidity Pressure Visibility Wind Dir Wind Speed Gust Speed Precip Events Conditions
12:53 AM 55.0 °F 44.1 °F 67% 30.17 in 10.0 mi ESE 6.9 mph - N/A   Clear
1:53 AM 57.0 °F 45.0 °F 64% 30.15 in 10.0 mi ESE 9.2 mph - N/A   Clear
2:53 AM 57.0 °F 46.9 °F 69% 30.12 in 10.0 mi ESE 9.2 mph - N/A   Clear
3:53 AM 57.0 °F 48.0 °F 72% 30.11 in 10.0 mi ESE 8.1 mph - N/A   Clear
4:53 AM 55.9 °F 48.0 °F 75% 30.09 in 10.0 mi SE 5.8 mph - N/A   Clear
5:53 AM 57.0 °F 48.9 °F 74% 30.08 in 10.0 mi SE 8.1 mph - N/A   Clear
6:53 AM 55.9 °F 48.9 °F 77% 30.09 in 10.0 mi SE 6.9 mph - N/A   Clear
7:53 AM 61.0 °F 52.0 °F 72% 30.09 in 9.0 mi SSE 3.5 mph - N/A   Clear
8:53 AM 64.9 °F 51.1 °F 61% 30.08 in 9.0 mi SE 11.5 mph - N/A   Scattered Clouds
9:53 AM 66.9 °F 50.0 °F 54% 30.09 in 9.0 mi ESE 12.7 mph - N/A   Overcast
10:53 AM 71.1 °F 52.0 °F 51% 30.10 in 9.0 mi SE 16.1 mph - N/A   Partly Cloudy
11:53 AM 71.1 °F 53.1 °F 53% 30.09 in 9.0 mi ESE 13.8 mph - N/A   Overcast
12:53 PM 73.0 °F 53.1 °F 49% 30.06 in 9.0 mi ESE 17.3 mph 24.2 mph N/A   Scattered Clouds
1:53 PM 73.9 °F 53.1 °F 48% 30.03 in 9.0 mi SE 18.4 mph - N/A   Mostly Cloudy
2:53 PM 73.9 °F 52.0 °F 46% 30.00 in 9.0 mi ESE 18.4 mph - N/A   Scattered Clouds
3:53 PM 73.9 °F 54.0 °F 50% 29.97 in 9.0 mi SE 17.3 mph 24.2 mph N/A   Mostly Cloudy
4:53 PM 73.0 °F 54.0 °F 51% 29.95 in 8.0 mi ESE 17.3 mph - N/A   Mostly Cloudy
5:53 PM 72.0 °F 54.0 °F 53% 29.94 in 9.0 mi SE 17.3 mph - N/A   Mostly Cloudy
6:53 PM 71.1 °F 55.0 °F 57% 29.95 in 8.0 mi SE 15.0 mph - N/A   Scattered Clouds
7:53 PM 69.1 °F 55.9 °F 63% 29.95 in 8.0 mi SE 9.2 mph - N/A   Clear
8:53 PM 66.9 °F 59.0 °F 76% 29.96 in 10.0 mi ESE 6.9 mph - N/A   Clear
9:53 PM 66.9 °F 59.0 °F 76% 29.97 in 10.0 mi SE 6.9 mph - N/A   Clear
10:53 PM 66.9 °F 59.0 °F 76% 29.99 in 10.0 mi SE 5.8 mph - N/A   Clear
11:53 PM 66.0 °F 60.1 °F 81% 29.98 in 10.0 mi SE 5.8 mph - N/A   Clear